Temp
8 8 8 8 7 7 7 7 7 8 8 8 8 8 7 8 8 8 7 7 8 6 7 7 7 7 7 7 7 7 7 7 7 7 7 7 7 7 7 7 8 8 7
8 8 8 8 8 7 8 8 8 8 8 8 8 7 7 8 8 8 7 6 6 8 7 7 7 8 8 7 7 7 8 7 7 7 7 7 7 7 7 7 7 7 7
8 8 8 8 8 8 9 8 8 9 8 8 8 8 8 8 8 7 8 7 7 7 7 7 7 7 8 8 7 7 7 7 7 7 7 7 7 7 7 7 7 7 7
9 9 9 9 9 9 9 9 9 9 9 9 8 7 7 8 8 8 8 8 7 7 7 7 7 7 7 8 7 7 7 7 7 7 7 7 7 7 7 7 7 8 8
9 9 10 10 9 9 9 9 9 9 9 9 8 8 8 8 8 8 8 8 8 8 8 7 7 7 8 8 7 7 7 7 7 7 7 7 7 7 7 7 7 7 8
9 8 9 10 10 9 9 9 9 9 9 8 9 8 8 8 8 8 8 8 8 8 8 7 8 7 8 8 8 8 7 7 6 7 7 7 7 7 8 7 7 7 8
10 9 9 9 10 10 10 10 9 9 9 9 9 8 8 8 8 8 8 8 8 8 8 8 7 9 7 8 8 7 7 7 7 7 7 7 7 8 8 8 8 7 7
10 10 10 10 10 10 10 10 9 9 9 9 9 8 8 8 7 7 8 8 8 8 8 8 7 7 6 8 7 7 7 7 7 7 7 7 7 8 8 8 8 8 8
10 10 10 10 10 10 10 10 9 9 9 9 8 8 8 9 8 7 7 7 8 8 8 8 8 8 7 8 8 7 7 7 7 7 7 7 8 8 8 8 8 8 8
9 9 9 10 10 10 9 9 9 9 9 9 9 9 8 8 8 8 8 8 8 8 8 8 8 9 8 7 7 7 7 7 8 8 8 7 7 8 8 8 8 8 8
8 8 9 9 9 9 10 9 9 10 9 9 9 9 8 8 8 8 8 8 7 8 8 8 8 8 9 8 7 7 7 8 7 7 7 7 7 7 8 8 8 8 8
8 8 8 9 9 9 9 10 9 9 9 9 9 9 8 8 8 8 8 8 8 7 7 8 8 8 7 8 7 8 7 7 7 7 7 7 7 7 7 8 8 8 8
10 9 9 8 9 9 9 10 9 9 9 9 9 8 8 8 8 8 8 7 7 7 7 7 8 7 7 7 7 7 6 6 7 6 6 7 7 7 7 7 8 8 8
10 9 9 9 9 9 9 9 9 9 9 9 9 8 8 8 8 8 7 7 7 8 8 8 7 7 6 7 7 6 6 6 6 7 6 6 7 7 7 7 7 8 8
9 9 9 9 9 9 9 9 9 9 9 9 9 9 8 8 8 8 7 8 7 7 7 7 7 8 7 6 6 6 6 6 5 6 6 7 7 7 7 8 8 8 8
10 10 10 9 10 9 9 9 9 9 9 9 9 8 8 8 8 7 7 7 7 7 7 6 6 6 6 6 6 6 5 6 6 6 6 6 6 7 7 8 8 8 8
10 10 9 9 9 9 9 9 9 8 8 8 8 8 8 7 7 7 7 7 7 6 6 6 6 6 6 5 6 5 5 6 5 6 6 6 6 7 7 8 8 9 9
9 9 9 9 9 8 8 8 8 8 7 7 7 7 7 8 7 7 6 6 6 6 6 6 5 6 6 6 5 5 5 5 5 6 6 7 7 6 7 7 8 8 8
9 9 9 8 8 8 7 7 7 7 7 7 7 7 7 7 7 7 7 7 6 6 5 6 6 6 5 5 5 5 6 6 6 5 5 6 7 7 7 7 8 8 8
9 9 8 8 8 8 8 7 7 7 7 7 7 7 7 7 6 6 7 7 7 6 6 5 6 5 5 5 5 5 5 5 5 6 6 5 6 6 7 7 7 8 8
9 8 8 8 8 8 8 7 7 7 8 8 8 7 7 7 7 6 6 6 6 6 6 6 5 5 5 5 5 5 5 6 5 5 5 6 6 6 7 7 8 8 8
8 8 9 9 8 8 8 8 8 7 7 7 7 7 7 7 7 6 6 6 6 6 5 5 5 5 5 5 5 5 6 6 6 5 5 6 7 6 7 7 8 9 8
8 8 8 8 8 8 8 7 7 7 7 7 7 6 5 7 7 6 6 6 5 5 5 5 5 4 4 4 5 5 5 6 6 7 6 7 7 7 7 7 7 8 9
8 8 8 8 8 7 8 8 7 6 6 6 6 6 6 5 6 5 5 5 4 4 4 4 4 4 4 4 4 5 5 5 5 5 6 6 6 7 7 7 8 8 8
7 8 7 7 7 7 7 7 7 6 5 5 6 5 5 4 4 3 4 3 3 3 3 3 3 3 3 2 3 4 4 5 5 5 5 6 6 6 6 7 7 8 8
7 7 7 7 7 7 6 6 6 6 4 3 3 3 4 5 4 3 3 3 2 2 2 2 2 2 2 3 3 3 3 4 4 5 4 4 5 6 6 6 7 7 7
Height
3186 3185 3185 3184 3184 3183 3183 3183 3182 3182 3182 3183 3183 3182 3181 3182 3181 3184 3184 3183 3172 3184 3186 3186 3186 3188 3190 3193 3196 3199 3201 3202 3203 3204 3205 3206 3207 3209 3210 3212 3213 3213 3215
3185 3184 3183 3182 3182 3181 3181 3180 3180 3179 3179 3180 3180 3181 3181 3177 3179 3180 3180 3178 3176 3166 3178 3179 3182 3183 3184 3187 3190 3193 3197 3199 3201 3202 3203 3204 3206 3207 3209 3210 3212 3213 3214
3182 3182 3181 3180 3180 3179 3178 3178 3178 3177 3177 3178 3178 3177 3177 3172 3175 3174 3174 3173 3171 3171 3172 3173 3176 3179 3181 3183 3185 3188 3191 3195 3197 3199 3201 3202 3204 3205 3207 3208 3210 3212 3212
3180 3179 3178 3178 3178 3177 3177 3176 3175 3175 3175 3174 3174 3174 3171 3171 3170 3169 3169 3169 3167 3166 3166 3169 3171 3172 3176 3178 3180 3183 3187 3190 3192 3196 3198 3200 3201 3203 3205 3206 3208 3210 3211
3179 3176 3175 3175 3175 3174 3174 3173 3173 3173 3172 3172 3171 3171 3169 3167 3165 3163 3163 3162 3162 3163 3164 3164 3162 3167 3169 3172 3173 3176 3181 3185 3188 3191 3194 3197 3199 3200 3202 3204 3206 3207 3210
3180 3176 3173 3174 3174 3173 3172 3171 3171 3170 3170 3170 3169 3167 3165 3164 3159 3160 3158 3157 3156 3158 3160 3156 3158 3159 3162 3166 3168 3170 3176 3180 3183 3186 3189 3192 3195 3197 3199 3201 3203 3205 3206
3176 3178 3174 3172 3172 3172 3171 3170 3168 3169 3168 3166 3164 3162 3162 3159 3157 3153 3153 3152 3150 3152 3153 3150 3128 3151 3156 3160 3163 3167 3172 3175 3177 3180 3184 3187 3190 3193 3195 3198 3200 3201 3203
3175 3173 3173 3173 3171 3170 3169 3169 3168 3168 3167 3165 3163 3161 3159 3158 3155 3151 3148 3147 3147 3148 3148 3148 3146 3148 3157 3158 3157 3161 3168 3171 3174 3176 3180 3182 3185 3189 3192 3194 3196 3198 3200
3170 3170 3170 3170 3170 3168 3167 3166 3165 3165 3164 3162 3160 3159 3157 3155 3152 3149 3146 3144 3145 3145 3146 3145 3143 3145 3131 3150 3150 3152 3162 3166 3170 3173 3176 3178 3181 3185 3188 3190 3192 3194 3196
3164 3165 3164 3166 3166 3166 3164 3164 3162 3162 3161 3160 3158 3156 3154 3153 3148 3147 3145 3143 3141 3141 3142 3142 3140 3141 3143 3146 3149 3154 3157 3161 3166 3169 3172 3176 3178 3180 3184 3186 3189 3191 3193
3155 3155 3161 3162 3164 3164 3163 3162 3161 3160 3158 3157 3155 3153 3150 3150 3147 3145 3143 3142 3140 3140 3139 3138 3135 3134 3136 3141 3145 3146 3144 3156 3161 3165 3168 3172 3175 3177 3178 3181 3184 3186 3188
3152 3154 3156 3160 3160 3160 3159 3159 3158 3156 3155 3153 3152 3150 3149 3147 3145 3143 3141 3139 3137 3136 3135 3136 3135 3120 3131 3138 3140 3142 3145 3152 3157 3160 3164 3167 3170 3172 3174 3176 3179 3181 3183
3156 3156 3156 3155 3155 3156 3156 3155 3153 3152 3151 3149 3148 3147 3145 3143 3142 3141 3139 3136 3135 3133 3134 3133 3134 3131 3123 3137 3136 3139 3143 3148 3152 3156 3159 3162 3164 3167 3169 3171 3173 3176 3178
3158 3157 3155 3154 3153 3154 3153 3152 3150 3149 3148 3147 3145 3144 3142 3141 3139 3137 3136 3135 3133 3131 3131 3131 3132 3131 3133 3133 3133 3136 3138 3142 3147 3152 3155 3156 3158 3161 3163 3165 3167 3169 3171
3158 3157 3156 3154 3153 3151 3150 3148 3147 3146 3145 3143 3141 3140 3139 3136 3135 3134 3132 3130 3129 3129 3129 3129 3129 3130 3132 3133 3133 3131 3137 3140 3142 3148 3151 3153 3154 3155 3156 3159 3161 3162 3164
3157 3156 3154 3153 3151 3150 3148 3146 3144 3142 3141 3139 3138 3136 3135 3133 3132 3131 3130 3128 3127 3127 3127 3127 3127 3128 3130 3131 3133 3132 3137 3140 3143 3145 3145 3146 3149 3152 3152 3153 3153 3154 3156
3156 3154 3152 3150 3149 3147 3144 3141 3140 3138 3136 3135 3134 3133 3131 3130 3128 3127 3127 3126 3125 3124 3124 3124 3125 3126 3127 3128 3130 3131 3133 3137 3138 3139 3141 3144 3146 3145 3147 3147 3148 3149 3148
3154 3152 3150 3148 3145 3143 3141 3139 3136 3135 3133 3131 3129 3129 3127 3126 3124 3123 3122 3122 3121 3120 3120 3120 3121 3121 3122 3122 3124 3126 3128 3132 3132 3130 3133 3136 3137 3139 3140 3140 3142 3142 3142
3152 3150 3147 3145 3142 3139 3138 3135 3132 3130 3129 3127 3125 3123 3121 3120 3119 3118 3117 3117 3116 3116 3115 3116 3116 3115 3116 3116 3119 3121 3122 3124 3123 3124 3124 3126 3127 3128 3130 3131 3131 3132 3134
3149 3146 3143 3140 3138 3135 3133 3130 3128 3126 3124 3122 3120 3118 3116 3114 3112 3111 3110 3110 3109 3109 3109 3109 3109 3108 3109 3109 3109 3111 3111 3112 3113 3113 3116 3116 3118 3120 3120 3122 3121 3122 3124
3147 3144 3141 3138 3135 3131 3129 3127 3124 3122 3120 3117 3114 3112 3111 3108 3107 3106 3104 3103 3103 3102 3101 3101 3102 3102 3102 3101 3101 3102 3100 3101 3100 3100 3104 3107 3108 3109 3110 3111 3111 3112 3113
3144 3140 3136 3133 3130 3127 3125 3123 3119 3117 3115 3112 3110 3107 3104 3103 3102 3101 3098 3096 3095 3095 3094 3093 3093 3092 3093 3091 3092 3091 3091 3090 3091 3093 3092 3093 3096 3097 3098 3098 3098 3100 3103
3140 3135 3132 3129 3126 3123 3120 3119 3115 3113 3110 3108 3104 3102 3100 3094 3095 3093 3091 3089 3087 3086 3085 3084 3083 3083 3082 3081 3081 3080 3080 3080 3081 3082 3081 3081 3084 3083 3086 3088 3089 3089 3091
3135 3132 3128 3125 3121 3119 3116 3114 3112 3110 3106 3103 3099 3097 3094 3090 3090 3085 3083 3081 3079 3077 3074 3073 3073 3073 3071 3071 3070 3070 3069 3068 3069 3071 3071 3069 3072 3072 3073 3075 3077 3077 3079
3131 3127 3124 3121 3117 3115 3113 3110 3108 3104 3100 3097 3093 3091 3087 3083 3081 3077 3075 3073 3071 3070 3066 3063 3064 3063 3062 3059 3058 3057 3058 3057 3058 3059 3058 3056 3059 3060 3061 3063 3065 3067 3068
3126 3122 3120 3116 3113 3111 3108 3105 3102 3100 3096 3093 3089 3084 3078 3076 3073 3070 3067 3064 3061 3059 3057 3055 3052 3050 3048 3047 3048 3045 3045 3045 3046 3047 3051 3046 3046 3048 3049 3052 3054 3055 3056
Wind_Speed
8 8 8 9 9 7 8 10 14 14 18 20 18 21 15 21 21 22 22 28 17 22 22 20 18 19 21 21 19 19 17 13 12 10 9 9 10 11 9 9 9 8 6
11 11 10 9 10 10 8 10 11 12 12 14 16 19 21 21 21 22 25 30 32 20 22 23 22 18 18 21 21 20 20 17 15 14 12 11 11 11 11 10 10 8 8
12 12 15 14 12 10 8 9 10 11 11 15 19 21 22 23 23 20 21 21 30 27 24 21 20 16 17 17 18 20 23 20 19 16 15 14 12 12 12 12 11 11 10
17 16 17 16 14 12 9 7 8 10 12 12 15 18 23 23 23 24 24 22 21 21 23 24 22 18 17 17 17 20 23 21 21 17 17 16 14 13 13 12 12 12 11
16 18 12 13 13 13 12 9 9 9 11 12 14 15 19 21 21 24 23 25 25 22 23 26 24 20 20 20 25 26 26 23 22 26 20 20 18 16 15 13 13 12 12
17 15 9 11 8 10 9 8 9 11 11 13 14 15 17 18 20 19 21 23 27 24 19 27 25 18 18 23 22 28 22 27 27 26 24 25 22 20 16 15 14 14 14
12 14 9 8 9 9 6 6 6 9 11 13 18 19 18 20 16 17 20 20 19 19 20 27 25 10 19 20 20 21 23 23 19 22 21 23 22 21 19 17 16 15 15
19 14 14 17 12 10 10 10 10 10 11 13 19 23 24 18 17 18 20 20 18 16 18 22 20 18 22 19 23 19 21 17 19 20 20 18 20 22 21 19 18 17 16
20 17 14 14 13 12 11 11 13 15 16 19 22 22 23 23 26 17 15 10 15 19 20 20 24 25 29 16 22 14 17 19 19 20 20 17 19 21 22 21 20 19 18
19 19 16 13 14 13 11 14 14 15 17 17 21 20 19 22 21 17 12 11 13 12 15 19 23 24 28 22 17 18 17 20 20 21 21 20 19 21 22 22 21 20 20
24 13 14 12 11 15 12 16 14 15 18 18 20 20 22 20 16 14 13 14 14 17 21 21 20 21 20 22 25 28 26 18 19 20 22 25 21 21 21 22 22 22 22
5 9 14 12 16 16 13 15 22 21 19 19 20 19 19 19 13 14 16 17 19 16 15 18 18 14 14 20 25 25 22 24 21 19 21 24 23 24 22 20 21 23 23
3 7 14 15 18 19 22 23 21 18 18 18 18 18 17 16 15 17 18 18 15 17 15 16 17 20 14 14 19 23 24 26 20 23 20 21 26 25 23 23 24 25 25
8 9 12 14 15 15 16 17 16 14 14 16 17 18 18 17 18 18 19 15 15 18 18 12 10 19 6 9 6 10 18 29 26 22 23 22 24 26 27 26 26 27 28
14 15 16 14 14 14 16 16 15 15 16 16 17 17 17 18 18 17 17 15 15 15 16 17 18 17 16 9 6 6 3 1 13 18 28 26 22 25 28 30 29 30 32
13 13 13 13 14 15 15 16 16 16 16 15 16 15 16 16 17 13 11 12 14 14 17 14 14 12 14 16 18 8 10 9 12 14 11 17 13 19 21 23 25 27 29
11 12 14 15 15 16 16 17 17 17 18 18 17 17 17 17 17 16 16 16 14 14 17 19 18 17 18 17 23 18 16 15 16 18 18 18 19 19 22 21 23 23 27
10 12 14 15 17 19 20 20 21 21 21 21 19 18 19 20 21 21 21 18 17 14 16 22 24 25 24 26 24 26 23 22 23 25 25 27 26 29 28 27 28 27 23
13 15 17 19 20 21 20 20 21 21 21 22 23 23 22 21 21 23 24 23 22 18 19 22 26 30 32 33 32 32 35 39 39 40 37 30 27 29 30 32 33 31 30
15 18 20 22 23 24 23 23 23 23 23 23 22 23 23 23 23 22 23 24 24 25 25 24 23 24 27 29 30 30 35 38 42 51 44 42 36 33 33 29 32 32 32
18 21 22 21 21 23 23 24 24 25 25 26 26 25 23 24 24 24 25 23 24 26 27 28 30 32 34 36 32 35 37 32 32 35 39 38 33 34 35 34 34 34 35
20 22 23 22 21 22 23 24 25 26 25 25 25 25 27 26 24 24 25 26 26 26 28 29 30 32 32 35 34 35 38 37 38 37 39 41 39 40 37 36 35 32 35
23 24 22 21 21 20 22 24 25 27 27 26 26 26 25 32 29 28 28 27 29 28 28 29 30 32 34 34 36 36 35 37 38 40 42 43 42 42 38 36 35 37 36
24 22 20 20 21 21 22 23 24 25 27 25 27 28 28 29 28 30 29 29 29 30 32 31 32 30 32 33 34 35 36 37 37 36 39 43 39 39 38 37 36 38 37
24 21 19 19 20 21 22 22 23 23 25 26 29 27 28 29 28 30 31 31 30 31 33 36 33 33 32 35 35 36 35 37 36 35 36 38 36 36 36 36 35 35 36
23 21 20 20 20 22 22 22 24 24 23 25 28 30 34 34 32 32 34 34 36 37 37 38 39 39 40 39 35 36 35 36 37 36 32 38 39 36 34 32 33 34 37
Wind_Direction
314 322 328 328 327 312 303 293 295 273 263 257 262 266 264 260 257 253 245 253 269 241 247 247 243 246 248 248 247 237 230 228 230 225 221 220 226 222 227 226 227 225 215
317 317 306 316 318 319 320 309 295 292 279 260 258 245 265 268 271 276 262 262 262 260 241 240 245 244 247 247 244 237 224 228 227 230 226 222 223 226 229 234 232 227 212
314 311 308 298 294 298 311 308 305 290 282 272 268 271 274 263 274 279 273 255 267 262 237 240 230 235 239 246 240 230 220 225 225 230 229 235 226 228 225 230 230 223 224
318 307 297 289 289 295 308 302 303 303 301 297 283 286 282 287 283 280 276 273 271 278 246 235 231 224 231 226 235 230 220 229 231 228 234 233 233 232 229 230 234 229 219
327 330 286 278 285 288 288 293 294 294 296 294 290 283 279 289 288 283 280 274 264 267 256 252 236 223 227 240 228 225 224 229 234 236 234 236 230 231 234 234 238 233 223
319 316 305 282 292 290 287 283 283 286 290 290 293 291 294 295 284 290 285 277 262 267 254 246 251 228 228 236 236 231 237 229 235 236 237 237 230 230 230 236 242 242 238
335 311 303 265 269 274 281 286 298 303 307 304 321 325 317 302 309 305 286 280 259 263 254 257 264 214 241 230 231 233 230 231 204 218 231 230 230 231 230 231 235 241 245
309 318 299 282 275 271 277 283 291 305 298 298 305 307 318 320 309 312 305 276 257 269 269 263 269 222 227 236 227 222 231 232 212 219 226 231 228 230 230 233 235 234 239
298 295 288 289 287 275 279 283 285 288 289 299 307 314 322 333 319 314 294 270 257 267 266 256 251 254 256 222 253 217 220 226 221 227 228 230 230 233 233 231 234 234 235
294 288 268 276 277 284 289 290 289 295 302 303 308 311 319 317 318 317 313 267 268 275 259 252 247 255 247 245 246 229 236 233 228 229 235 233 232 233 236 235 236 237 239
295 262 256 267 295 293 291 304 305 313 310 307 307 307 310 313 304 307 319 305 278 278 274 259 249 247 239 242 232 237 214 232 228 235 238 238 242 237 236 237 237 238 241
308 236 256 286 289 290 294 299 304 307 309 308 305 304 308 311 300 299 305 306 290 284 280 261 266 256 229 247 236 242 253 233 236 235 232 234 241 240 236 236 240 243 243
77 272 292 302 293 293 284 287 298 302 303 302 302 304 306 307 303 301 303 301 289 299 294 253 238 253 223 241 248 250 249 229 241 240 237 234 236 242 242 241 242 244 245
323 313 313 313 307 297 294 300 300 303 305 304 309 307 305 302 300 297 299 296 291 272 285 270 269 243 242 227 219 237 247 227 232 238 240 241 238 240 244 248 250 249 247
307 311 310 308 303 303 304 304 306 307 306 307 303 305 303 301 297 297 298 295 287 267 269 267 266 264 226 265 203 200 193 178 214 242 252 238 247 252 248 243 255 254 251
300 307 309 309 306 303 302 304 307 309 307 304 303 299 296 294 298 304 303 298 297 279 267 264 262 262 260 231 231 223 246 237 236 237 241 237 238 250 247 250 257 255 243
307 308 311 310 310 312 312 312 310 312 311 309 303 294 288 292 287 285 297 298 285 281 273 273 267 256 254 250 248 243 245 258 266 252 244 235 240 266 264 259 258 259 253
316 311 308 309 311 309 308 307 309 311 310 306 304 297 289 287 287 288 289 290 283 272 268 266 267 265 262 258 256 239 256 256 253 260 270 255 254 262 254 265 264 258 260
327 324 322 318 315 312 310 308 307 305 303 304 303 303 300 293 286 286 286 286 282 267 264 263 266 269 265 265 264 259 252 259 263 260 272 262 270 270 264 266 261 258 256
330 330 326 320 316 315 315 313 311 309 309 308 305 304 303 300 297 290 284 284 284 281 275 266 266 269 269 266 267 265 267 267 255 255 256 266 268 266 268 264 257 255 256
329 329 323 317 315 309 311 309 308 308 308 308 308 305 303 300 299 296 295 290 284 280 279 273 269 266 264 267 270 269 272 271 266 262 260 260 269 268 272 270 267 255 249
325 325 324 318 310 310 307 306 306 306 304 303 302 302 301 295 296 295 295 292 288 283 278 276 275 273 273 272 271 267 270 272 269 265 267 270 271 269 277 275 274 261 250
321 321 315 310 308 308 307 307 307 304 304 305 304 304 304 303 303 300 297 295 293 289 283 280 278 277 276 274 274 274 272 268 266 268 270 271 270 271 272 268 265 263 259
317 315 311 308 308 310 307 304 302 300 301 305 303 303 300 296 298 296 297 296 295 294 293 292 289 286 283 279 276 275 274 272 270 266 264 267 266 267 267 266 264 262 260
317 312 310 307 309 308 304 305 303 302 304 307 301 298 296 296 301 301 303 302 299 297 296 296 293 289 286 284 284 281 277 275 273 273 276 275 267 265 261 262 263 263 262
314 314 313 311 310 307 307 306 307 305 300 302 304 306 304 302 306 305 302 302 302 300 299 298 297 296 293 288 285 280 276 273 272 270 270 268 269 269 266 261 258 257 258